VTD708 UUBW-ULLI

Flight info

Callsign VTD708
Flight time N/A
Altitude 38000
Route SUNUN M869 RAVKA N50 NUDKO T561 ODATI T875 GENPA
Aircraft A346/H-SDE2E3FGHIJ3J4J5M1RWXYZ/C

Departure

Time 2026-04-19 08:55
Airport Zhukovsky International Airport (UUBW)

Arrival

Time N/A
Airport Pulkovo Airport (ULLI)
Time Latitude Longitude Altitude Speed Heading
2026-04-19 08:43 55.56430 38.11931 391 ft 0 kts 267°
2026-04-19 08:48 55.56430 38.11940 391 ft 1 kts 267°
2026-04-19 08:49 55.56432 38.11965 391 ft 2 kts 239°
2026-04-19 08:49 55.56442 38.11984 391 ft 2 kts 208°
2026-04-19 08:49 55.56456 38.11992 391 ft 2 kts 181°
2026-04-19 08:49 55.56470 38.11987 391 ft 2 kts 153°
2026-04-19 08:50 55.56480 38.11976 391 ft 0 kts 132°
2026-04-19 08:50 55.56483 38.11969 391 ft 0 kts 131°
2026-04-19 08:52 55.56474 38.11986 391 ft 9 kts 134°
2026-04-19 08:52 55.56380 38.12163 391 ft 24 kts 131°
2026-04-19 08:52 55.56267 38.12392 391 ft 23 kts 130°
2026-04-19 08:53 55.56158 38.12612 391 ft 24 kts 130°
2026-04-19 08:53 55.56146 38.12843 391 ft 21 kts 50°
2026-04-19 08:53 55.56228 38.13029 391 ft 14 kts 86°
2026-04-19 08:53 55.56202 38.13150 391 ft 0 kts 130°
2026-04-19 08:54 55.56193 38.13167 391 ft 14 kts 130°
2026-04-19 08:54 55.55925 38.13707 391 ft 102 kts 131°
2026-04-19 08:54 55.55278 38.14993 394 ft 173 kts 132°
2026-04-19 08:55 55.54402 38.16673 792 ft 197 kts 128°
2026-04-19 08:55 55.53502 38.18451 1655 ft 195 kts 124°
2026-04-19 08:55 55.52750 38.20353 2327 ft 194 kts 113°
2026-04-19 08:55 55.52191 38.22592 2759 ft 207 kts 105°
2026-04-19 08:56 55.51606 38.25049 3184 ft 228 kts 109°
2026-04-19 08:56 55.50933 38.27661 3676 ft 239 kts 110°
2026-04-19 08:56 55.50240 38.30296 3956 ft 237 kts 107°
2026-04-19 08:56 55.49974 38.33053 3970 ft 226 kts 76°
2026-04-19 08:57 55.50569 38.35558 3983 ft 221 kts 47°
2026-04-19 08:57 55.51780 38.37178 3990 ft 220 kts 25°
2026-04-19 08:57 55.53158 38.38341 3989 ft 220 kts 26°
2026-04-19 08:57 55.54588 38.39253 3965 ft 221 kts
2026-04-19 08:58 55.56098 38.38847 3979 ft 228 kts 338°
2026-04-19 08:58 55.57428 38.37072 3987 ft 252 kts 310°
2026-04-19 08:58 55.58270 38.34296 3996 ft 260 kts 298°
2026-04-19 08:58 55.59024 38.31406 3990 ft 261 kts 296°
2026-04-19 08:59 55.59627 38.28381 3987 ft 263 kts 289°
2026-04-19 08:59 55.60068 38.25246 3986 ft 264 kts 287°
2026-04-19 08:59 55.60482 38.22050 3988 ft 264 kts 286°
2026-04-19 08:59 55.60886 38.18893 3988 ft 264 kts 287°
2026-04-19 09:00 55.61259 38.15716 3984 ft 266 kts 280°
2026-04-19 09:00 55.61280 38.12407 4033 ft 276 kts 266°
2026-04-19 09:00 55.60983 38.08989 4707 ft 285 kts 263°
2026-04-19 09:00 55.60646 38.05660 5721 ft 281 kts 263°
2026-04-19 09:01 55.60184 38.02308 6431 ft 285 kts 246°
2026-04-19 09:01 55.58932 37.99629 6865 ft 290 kts 214°
2026-04-19 09:01 55.57172 37.97876 6997 ft 290 kts 207°
2026-04-19 09:01 55.55389 37.96220 6987 ft 289 kts 210°
2026-04-19 09:02 55.53909 37.93923 6966 ft 287 kts 240°
2026-04-19 09:02 55.53197 37.90621 7327 ft 293 kts 259°
2026-04-19 09:02 55.52725 37.87185 8178 ft 290 kts 258°
2026-04-19 09:02 55.52234 37.83729 8741 ft 290 kts 258°
2026-04-19 09:03 55.51728 37.80310 8990 ft 289 kts 257°
2026-04-19 09:03 55.51208 37.76877 8994 ft 289 kts 257°
2026-04-19 09:03 55.50679 37.73476 8995 ft 289 kts 255°
2026-04-19 09:03 55.50019 37.70138 8996 ft 289 kts 250°
2026-04-19 09:04 55.49218 37.66875 8998 ft 289 kts 248°
2026-04-19 09:04 55.48405 37.63686 9002 ft 289 kts 248°
2026-04-19 09:04 55.47581 37.60455 9007 ft 289 kts 248°
2026-04-19 09:04 55.46740 37.57212 8994 ft 289 kts 244°
2026-04-19 09:05 55.45567 37.54389 9001 ft 293 kts 225°
2026-04-19 09:05 55.43932 37.52137 9460 ft 299 kts 216°
2026-04-19 09:05 55.42246 37.50099 9891 ft 296 kts 215°
2026-04-19 09:05 55.40539 37.48045 9996 ft 294 kts 215°
2026-04-19 09:06 55.38866 37.46009 9999 ft 294 kts 216°
2026-04-19 09:06 55.37212 37.43968 9999 ft 293 kts 216°
2026-04-19 09:06 55.35540 37.41894 9999 ft 293 kts 216°
2026-04-19 09:06 55.33875 37.39823 9997 ft 294 kts 216°
2026-04-19 09:07 55.32339 37.37535 9970 ft 292 kts 236°
2026-04-19 09:07 55.31540 37.34278 10053 ft 295 kts 264°
2026-04-19 09:07 55.31482 37.30646 10542 ft 307 kts 272°
2026-04-19 09:07 55.31484 37.26861 11200 ft 316 kts 271°
2026-04-19 09:08 55.31462 37.22990 12014 ft 320 kts 270°
2026-04-19 09:08 55.31423 37.19109 12832 ft 324 kts 270°
2026-04-19 09:08 55.31382 37.15135 13626 ft 327 kts 272°
2026-04-19 09:08 55.31608 37.11159 14387 ft 330 kts 282°
2026-04-19 09:09 55.32238 37.07331 15134 ft 333 kts 291°
2026-04-19 09:09 55.33089 37.03532 15887 ft 336 kts 293°
2026-04-19 09:09 55.33962 36.99773 16555 ft 340 kts 293°
2026-04-19 09:09 55.34851 36.95924 16930 ft 342 kts 292°
2026-04-19 09:10 55.35744 36.92008 16991 ft 343 kts 292°
2026-04-19 09:10 55.36614 36.88160 16996 ft 342 kts 292°
2026-04-19 09:10 55.37661 36.84455 16972 ft 341 kts 309°
2026-04-19 09:10 55.39443 36.81716 16992 ft 341 kts 333°
2026-04-19 09:11 55.41703 36.80428 17317 ft 347 kts 355°
2026-04-19 09:11 55.44071 36.80205 18122 ft 346 kts 358°
2026-04-19 09:11 55.46469 36.80001 18852 ft 349 kts 358°
2026-04-19 09:11 55.48891 36.79773 19488 ft 353 kts 357°
2026-04-19 09:12 55.51345 36.79527 20121 ft 357 kts 357°
2026-04-19 09:12 55.53857 36.79268 20762 ft 361 kts 357°
2026-04-19 09:12 55.56343 36.79010 21384 ft 365 kts 357°
2026-04-19 09:12 55.58873 36.78572 21969 ft 369 kts 348°
2026-04-19 09:13 55.61315 36.77205 22544 ft 372 kts 335°
2026-04-19 09:13 55.63568 36.74929 22854 ft 383 kts 326°
2026-04-19 09:13 55.65790 36.72165 23102 ft 396 kts 324°
2026-04-19 09:13 55.68034 36.69302 23341 ft 408 kts 324°
2026-04-19 09:14 55.70373 36.66322 23573 ft 420 kts 324°
2026-04-19 09:14 55.72768 36.63289 23939 ft 428 kts 324°
2026-04-19 09:14 55.75209 36.60210 24485 ft 432 kts 324°
2026-04-19 09:14 55.77634 36.57152 25005 ft 435 kts 324°
2026-04-19 09:15 55.80103 36.54037 25480 ft 439 kts 324°
2026-04-19 09:15 55.82613 36.50866 25937 ft 444 kts 325°
2026-04-19 09:15 55.87667 36.44548 26865 ft 451 kts 326°
2026-04-19 09:16 55.90298 36.41446 27419 ft 452 kts 327°
2026-04-19 09:16 55.92901 36.38407 27926 ft 453 kts 327°
2026-04-19 09:16 55.95540 36.35326 28367 ft 455 kts 327°
2026-04-19 09:16 55.98155 36.32264 28765 ft 457 kts 326°
2026-04-19 09:17 56.00814 36.29138 29247 ft 456 kts 326°
2026-04-19 09:17 56.03437 36.26047 29717 ft 455 kts 326°
2026-04-19 09:17 56.06080 36.22924 30160 ft 455 kts 326°
2026-04-19 09:17 56.08643 36.19712 30576 ft 455 kts 321°
2026-04-19 09:18 56.11066 36.16083 30952 ft 455 kts 316°
2026-04-19 09:18 56.13280 36.12128 31302 ft 454 kts 311°
2026-04-19 09:18 56.15309 36.07808 31634 ft 453 kts 307°
2026-04-19 09:18 56.17162 36.03239 31969 ft 452 kts 304°
2026-04-19 09:19 56.18956 35.98615 32330 ft 452 kts 304°